TimePDT,TemperatureF,Dew PointF,Humidity,Sea Level PressureIn,VisibilityMPH,Wind Direction,Wind SpeedMPH,Gust SpeedMPH,PrecipitationIn,Events,Conditions,WindDirDegrees,DateUTC
12:00 AM,75.2,51.8,44,29.70,40.0,East,6.9,-,N/A,,Partly Cloudy,100,2013-07-22 07:00:00
1:00 AM,73.4,51.8,47,29.73,40.0,East,4.6,-,N/A,,Clear,100,2013-07-22 08:00:00
2:00 AM,69.8,53.6,56,29.74,40.0,SE,3.5,-,N/A,,Clear,130,2013-07-22 09:00:00
3:00 AM,68.0,51.8,56,29.77,40.0,Calm,Calm,-,N/A,,Partly Cloudy,0,2013-07-22 10:00:00
4:00 AM,66.2,53.6,64,29.79,40.0,WSW,3.5,-,N/A,,Partly Cloudy,250,2013-07-22 11:00:00
5:00 AM,67,55,56,29.81,37,SW,3.5,,,,Scattered Clouds,230,2013-07-22 12:00:00
5:00 AM,66.2,55.4,68,29.81,40.0,WSW,3.5,-,N/A,,Partly Cloudy,250,2013-07-22 12:00:00
6:00 AM,68.0,53.6,60,29.82,40.0,WSW,9.2,-,N/A,,Partly Cloudy,250,2013-07-22 13:00:00
7:00 AM,71.6,51.8,50,29.83,40.0,WNW,16.1,24.2,N/A,,Partly Cloudy,290,2013-07-22 14:00:00
8:00 AM,73.4,51.8,47,29.85,40.0,West,18.4,-,N/A,,Clear,280,2013-07-22 15:00:00
9:00 AM,77.0,51.8,41,29.86,40.0,West,15.0,-,N/A,,Clear,270,2013-07-22 16:00:00
10:00 AM,80.6,50.0,34,29.85,40.0,West,13.8,-,N/A,,Clear,280,2013-07-22 17:00:00
11:00 AM,83,50,21,29.85,37,West,15.0,,,,Scattered Clouds,280,2013-07-22 18:00:00
11:00 AM,82.4,50.0,32,29.85,40.0,West,16.1,-,N/A,,Clear,280,2013-07-22 18:00:00
12:00 PM,84.2,50.0,30,29.84,40.0,West,13.8,-,N/A,,Clear,270,2013-07-22 19:00:00
1:00 PM,87.8,46.4,24,29.83,40.0,West,6.9,-,N/A,,Partly Cloudy,270,2013-07-22 20:00:00
2:00 PM,89.6,46.4,22,29.82,40.0,SW,4.6,-,N/A,,Partly Cloudy,230,2013-07-22 21:00:00
3:00 PM,91.4,48.2,23,29.81,40.0,West,9.2,-,N/A,,Partly Cloudy,270,2013-07-22 22:00:00
4:00 PM,91.4,46.4,21,29.80,40.0,WNW,2.3,-,N/A,,Scattered Clouds,300,2013-07-22 23:00:00
5:00 PM,90,45,13,29.79,37,South,2.3,,,,Partly Cloudy,190,2013-07-23 00:00:00
5:00 PM,89.6,44.6,21,29.79,40.0,South,2.3,-,N/A,,Mostly Cloudy,190,2013-07-23 00:00:00
6:00 PM,91.4,44.6,20,29.78,40.0,SSW,3.5,-,N/A,,Mostly Cloudy,200,2013-07-23 01:00:00
7:00 PM,91.4,44.6,20,29.78,40.0,West,2.3,-,N/A,,Mostly Cloudy,280,2013-07-23 02:00:00
8:00 PM,89.6,44.6,21,29.79,40.0,NNE,12.7,-,N/A,,Mostly Cloudy,30,2013-07-23 03:00:00
9:00 PM,86.0,44.6,23,29.81,40.0,NNE,6.9,-,N/A,,Mostly Cloudy,30,2013-07-23 04:00:00
10:00 PM,82.4,44.6,26,29.84,40.0,ENE,4.6,-,N/A,,Scattered Clouds,60,2013-07-23 05:00:00
11:00 PM,79,48,24,29.86,37,ESE,9.2,,,,Scattered Clouds,110,2013-07-23 06:00:00
11:00 PM,78.8,48.2,34,29.86,40.0,ESE,6.9,-,N/A,,Partly Cloudy,120,2013-07-23 06:00:00